Regional Weather Roundup
Issued by NWS

Home | Current Version | Previous Version | Graphics & Text | Print | Product List | Glossary On
Versions: 1 2 3 4 5 6 7 8 9 10 11 12 13 14 15 16 17 18 19 20 21 22 23 24 25 26 27 28 29 30 31 32 33 34 35 36 37 38 39 40 41 42 43 44 45 46 47 48 49 50
000
ASUS43 KMKX 161100
RWRWI

WISCONSIN REGIONAL WEATHER ROUNDUP
NATIONAL WEATHER SERVICE MILWAUKEE/SULLIVAN WI
500 AM CST SAT DEC 16 2017

NOTE: "FAIR" INDICATES FEW OR NO CLOUDS BELOW 12,000 FEET WITH NO
SIGNIFICANT WEATHER AND/OR OBSTRUCTIONS TO VISIBILITY.

WIZ001-002-006>008-014>016-023>028-161200-
NORTHWEST WISCONSIN

CITY           SKY/WX    TMP DP  RH WIND       PRES   REMARKS
SUPERIOR ARPT  CLOUDY    13  10  86 E6        29.83S WCI   4
ASHLAND        CLOUDY    10   5  80 E3        29.85S
HAYWARD        CLOUDY    15   9  76 NE6       29.78R WCI   6
SIREN          CLOUDY    19  16  85 E8        29.76R WCI   9
CUMBERLAND     CLOUDY    19  18  93 E7        29.74R WCI  10
RICE LAKE      CLOUDY    21  18  88 E6        29.76R WCI  13
CHETEK         CLOUDY    19  17  89 E6        29.75R WCI  11
LADYSMITH      CLOUDY    18  13  83 E9        29.78R WCI   6
EAU CLAIRE     NOT AVBL
MENOMONIE      CLOUDY    25  22  90 NE9       29.74R WCI  15
NEW RICHMOND   CLOUDY    24  21  89 E10       29.71S WCI  13
OSCEOLA        CLOUDY    25  21  87 E6        29.75S WCI  18
$$

WIZ003>005-009-010-017-018-161200-
NORTH CENTRAL WISCONSIN

CITY           SKY/WX    TMP DP  RH WIND       PRES   REMARKS
MANITOWISH WTR CLOUDY     7   5  91 E3        29.79S
ARBOR VITAE    FLURRIES  11   8  85 CALM      29.78F
WOODRUFF       FLURRIES  11   8  85 CALM      29.78F
RHINELANDER    CLOUDY     6   4  91 E6        29.79S WCI  -4
EAGLE RIVER    CLOUDY     6   2  85 CALM      29.79S
LAND O LAKES   CLOUDY     8   5  89 CALM      29.81S
PHILLIPS       CLOUDY     9   7  90 E3        29.77S
TOMAHAWK       FLURRIES   8   6  89 CALM      29.79F
MEDFORD        CLOUDY    15  12  87 E10       29.75R WCI   2
MERRILL        CLOUDY    13  10  87 E3        29.81R
$$

WIZ029-030-035-036-043>047-161200-
CENTRAL WISCONSIN

CITY           SKY/WX    TMP DP  RH WIND       PRES   REMARKS
WAUSAU         CLOUDY    14  10  84 E10       29.79R WCI   1
MOSINEE        LGT SNOW  16  12  86 E9        29.80R WCI   4
MARSHFIELD     CLOUDY    18  14  84 E13       29.75R WCI   5
STEVENS POINT  LGT SNOW  15  12  90 E10       29.80S WCI   2
WAUPACA        FLURRIES  19  14  82 NE8       29.83S WCI   9
WAUTOMA        CLOUDY    18  15  88 NE12      29.80F WCI   5
WISC RAPIDS    CLOUDY    18  13  80 E10       29.80R WCI   6
CAMP DOUGLAS   CLOUDY    27  25  93 E6        29.74F WCI  20
$$

WIZ011>013-019>022-031-037>040-048>050-161200-
NORTHEAST WISCONSIN

CITY           SKY/WX    TMP DP  RH WIND       PRES   REMARKS
ANTIGO         LGT SNOW  10   7  87 E6        29.80S WCI   1
SHAWANO        LGT SNOW  15  11  84 NE3       29.87R
OCONTO         CLOUDY    14   6  71 CALM      29.88S
STURGEON BAY   FLURRIES  18   9  68 NE3       29.88R
GREEN BAY      LGT SNOW  18  13  80 NE8       29.87R WCI   8
MANITOWOC      FLURRIES  17  15  92 N5        29.86S WCI  10
APPLETON       FLURRIES  18  12  79 E10G16    29.81S WCI   6
CLINTONVILLE   NOT AVBL
OSHKOSH        FLURRIES  19  15  84 NE10      29.82S WCI   7
$$

WIZ032>034-041-042-053>061-161200-
SOUTHWEST WISCONSIN

CITY           SKY/WX    TMP DP  RH WIND       PRES   REMARKS
LA CROSSE      MOCLDY    31  27  85 E7        29.71S WCI  24
SPARTA         CLOUDY    29  27  93 E7        29.73F WCI  22
VIROQUA        CLOUDY    31  28  90 CALM      29.70S
BOSCOBEL       CLOUDY    31  26  82 CALM      29.74F
PRAIRIE DU CHI CLOUDY    35  22  58 CALM      29.73S
PLATTEVILLE    CLOUDY    32  25  75 S12       29.74S WCI  23
$$

WIZ056-057-062-063-064-067-068-161200-
SOUTH CENTRAL WISCONSIN

CITY           SKY/WX    TMP DP  RH WIND       PRES   REMARKS
REEDSBURG      CLOUDY    29  29  99 E6        29.74S WCI  23
BARABOO/DELLS  CLOUDY    27  26  96 NE9       29.75S WCI  18
LONE ROCK      NOT AVBL
MINERAL POINT  CLOUDY    34  28  80 S6        29.73S WCI  29
MADISON        CLOUDY    32  24  72 S6        29.76F WCI  26
MIDDLETON      CLOUDY    36  24  63 SW3       29.76S
WATERTOWN      CLOUDY    32  27  83 CALM      29.78R
MONROE         CLOUDY    32  23  69 S12       29.75S WCI  23
JANESVILLE     CLOUDY    36  25  64 SW5       29.77S WCI  32
$$

WIZ051-052-058>065-066-070>072-161200-
SOUTHEAST WISCONSIN

CITY           SKY/WX    TMP DP  RH WIND       PRES   REMARKS
MILWAUKEE      CLOUDY    34  25  69 CALM      29.81R
WAUKESHA       CLOUDY    28  27  93 CALM      29.80R
MILWAUKEE/TIMM CLOUDY    30  27  86 CALM      29.81R
RACINE         CLOUDY    34  25  69 SW5       29.82R WCI  30
BURLINGTON     PTCLDY    34  26  72 SW9       29.79R WCI  26
KENOSHA        CLOUDY    36  23  59 SW10      29.80S WCI  28
FOND DU LAC    CLOUDY    23  17  78 E8        29.81S WCI  14
SHEBOYGAN      FLURRIES  20  18  92 NE9       29.82F WCI   9
WEST BEND      CLOUDY    25  25 100 NE3       29.81R
JUNEAU         CLOUDY    29  26  89 E5        29.79R WCI  24
$$

LSZ147-162-161200-
LAKE SUPERIOR

STATION/POSITION TIME  TEMP    WIND        PRES    WAVE
                       AIR SEA DIR/SP/G            HT/PER
                 (UTC) (F)     (DEG/KT/KT) (MB)    (FT/S)
DEVILS ISLAND    1000   22      70/ 18/ 21 1011.9R
SAXON HARBOR     1040   12                 1010.8R
$$

LMZ867-665-643>646-161200-
LAKE MICHIGAN

STATION/POSITION TIME  TEMP    WIND        PRES    WAVE
                       AIR SEA DIR/SP/G            HT/PER
                 (UTC) (F)     (DEG/KT/KT) (MB)    (FT/S)
NORTHPORT PIER   1040   20      50/  6/  8 1012.2R
KEWAUNEE LAKESHO 1030   17     350/  6/  8 1010.7F
SHEBOYGAN LAKESH 1000   27      30/ 11/ 12 1011.5R
PORT WASHINGTON  1030   29      10/  5/  9 1010.5F
MILWAUKEE LAKESH 1030   34      30/  4/  4   N/A
KENOSHA   LAKESH 1000   37     220/  9/ 12 1009.5
$$

TC  - TEMPERATURE IN CELSIUS
VSB - VISIBILITY IN STATUTE MILES
WCI - WIND CHILL INDEX
HX  - HEAT INDEX





USA.gov is the U.S. government's official web portal to all federal, state and local government web resources and services.